Regional Weather Roundup
Issued by NWS

Home | Current Version | Previous Version | Text Only | Print | Product List | Glossary On
Versions: 1 2 3 4 5 6 7 8 9 10 11 12 13 14 15 16 17 18 19 20 21 22 23 24 25 26 27 28 29 30 31 32 33 34 35 36 37 38 39 40 41 42 43 44 45 46 47 48 49 50
000
ASUS43 KLSX 291759
RWRMO

WEATHER SUMMARY FOR MISSOURI
NATIONAL WEATHER SERVICE SPRINGFIELD MO
100 PM CDT MON JUN 29 2015

NOTE: "FAIR" INDICATES FEW OR NO CLOUDS BELOW 12,000 FEET WITH NO
       SIGNIFICANT WEATHER AND/OR OBSTRUCTIONS TO VISIBILITY.
       CURRENT SKY AND/OR WEATHER CONDITIONS ARE NOT AVAILABLE FOR
       CHILLICOTHE AND FARMINGTON.

MOZ001>031-035>038-043-044-053-054-291900-
...NORTHERN AND WESTERN MISSOURI...

CITY           SKY/WX    TMP DP  RH WIND       PRES   REMARKS
KANSAS CTY INT CLOUDY    83  64  52 NW9       29.95F
6HR MIN TEMP:  66; 6HR MAX TEMP:  83;

KANSAS C DTWN  SUNNY     85  64  49 NW7       29.93F
LEE`S SUMMIT   MOSUNNY   84  64  50 NW7       29.95F
6HR MIN TEMP:  65; 6HR MAX TEMP:  84;

ST JOSEPH      SUNNY     85  62  46 W13       29.94S
6HR MIN TEMP:  66; 6HR MAX TEMP:  85;

CHILLICOTHE      N/A     83  65  54 NW7       29.92S
6HR MIN TEMP:  69; 6HR MAX TEMP:  84;

KIRKSVILLE     MOSUNNY   82  64  54 N13       29.90S
6HR MIN TEMP:  66; 6HR MAX TEMP:  83; 6HR PCP: TRACE;


$$
MOZ066>068-077>081-088>096-101>105-291900-
...SOUTHWEST MISSOURI...

CITY           SKY/WX    TMP DP  RH WIND       PRES   REMARKS
SPRINGFIELD    MOSUNNY   83  64  52 W9        29.96R
6HR MIN TEMP:  71; 6HR MAX TEMP:  84;

JOPLIN         MOSUNNY   86  65  49 NW9       29.97S
6HR MIN TEMP:  70; 6HR MAX TEMP:  86;


$$
MOZ032>034-039>042-045>050-055>058-069>072-291900-
...CENTRAL MISSOURI...

CITY           SKY/WX    TMP DP  RH WIND       PRES   REMARKS
COLUMBIA       MOSUNNY   83  65  54 NW12      29.91S
6HR MIN TEMP:  68; 6HR MAX TEMP:  83;

JEFFERSON CITY MOSUNNY   84  65  52 W14       29.89S
6HR MIN TEMP:  69; 6HR MAX TEMP:  84;

ROLLA          MOSUNNY   81  66  60 W10       29.91S
6HR MIN TEMP:  68; 6HR MAX TEMP:  81;

SEDALIA        MOSUNNY   84  66  54 N13       29.94S
6HR MIN TEMP:  68; 6HR MAX TEMP:  84;

OSAGE BEACH    MOSUNNY   82  63  51 NW7       29.93S

$$
MOZ051-052-059>065-291900-
...EAST CENTRAL MISSOURI...

CITY           SKY/WX    TMP DP  RH WIND       PRES   REMARKS
ST LOUIS INTL  MOSUNNY   81  66  60 W8        29.89R
6HR MIN TEMP:  72; 6HR MAX TEMP:  81;

SPIRIT OF STL  PTSUNNY   81  67  62 N3        29.87S
6HR MIN TEMP:  70; 6HR MAX TEMP:  81;

ST CHARLES     SUNNY     78  65  63 W12       29.87S
6HR MIN TEMP:  69; 6HR MAX TEMP:  78;


$$
MOZ072>076-082>087-097>100-106>115-291900-
...SOUTH CENTRAL AND SOUTHEAST MISSOURI...

CITY           SKY/WX    TMP DP  RH WIND       PRES   REMARKS
CAPE GIRARDEAU MOSUNNY   87  66  49 NW6       29.85S
6HR MIN TEMP:  72; 6HR MAX TEMP:  87;

FARMINGTON     MOSUNNY   82  64  54 NW9       29.93S
6HR MIN TEMP:  70; 6HR MAX TEMP:  82;

POPLAR BLUFF   MOSUNNY   87  68  52 CALM      29.85F HX  90
6HR MIN TEMP:  71; 6HR MAX TEMP:  87;

WEST PLAINS    MOSUNNY   83  65  54 NW12      29.94S
6HR MIN TEMP:  68; 6HR MAX TEMP:  84;


$$



USA.gov is the U.S. government's official web portal to all federal, state and local government web resources and services.